Regional Weather Roundup
Issued by NWS

Home | Current Version | Previous Version | Text Only | Print | Product List | Glossary On
Versions: 1 2 3 4 5 6 7 8 9 10 11 12 13 14 15 16 17 18 19 20 21 22 23 24 25 26 27 28 29 30 31 32 33 34 35 36 37 38 39 40 41 42 43 44 45 46 47 48 49 50
000
ASUS46 KSTO 220704
RWRCA

NORTHERN AND CENTRAL CA REGIONAL WEATHER ROUNDUP
NATIONAL WEATHER SERVICE SACRAMENTO CA
1100 PM PST SUN DEC 21 2014

NOTE: FAIR INDICATES FEW OR NO CLOUDS BELOW 12,000 FEET WITH NO
SIGNIFICANT WEATHER AND/OR OBSTRUCTIONS TO VISIBILITY.

CAZ001-003-220800-
NORTHWEST AREA

CITY           SKY/WX    TMP DP  RH WIND       PRES   REMARKS
CRESCENT CITY  CLOUDY    57  57 100 S6        30.33S FOG
UKIAH          CLEAR     52  50  93 CALM      30.32R FOG
$$

CAZ006-505>513-220800-
BAY AREA

CITY           SKY/WX    TMP DP  RH WIND       PRES   REMARKS
SANTA ROSA     FOG       52  52 100 SE3       30.28S VSB 1/2
SAN RAFAEL     N/A       61  MM  MM MISG
NAPA           CLEAR     54  54 100 S6        30.28S
CONCORD        PTCLDY    59  55  87 CALM      30.29R
OAKLAND CITY   N/A       59  MM  MM MISG
OAKLAND        PTCLDY    56  54  93 CALM      30.29S
SAN FRAN CITY  N/A       58  MM  97 MISG
SAN FRAN ARPT  PTCLDY    59  59 100 W10       30.29S
LIVERMORE      CLOUDY    61  57  87 CALM      30.28S
HAYWARD        PTCLDY    59  56  89 CALM      30.29S
REDWOOD CITY   N/A       MM  MM  MM MISG
MOFFETT ARPT   CLOUDY    59  56  89 CALM      30.30S
SAN JOSE ARPT  MOCLDY    58  56  93 W8        30.29S
$$
CAZ034-037-514>518-220800-
CENTRAL COAST

CITY           SKY/WX    TMP DP  RH WIND       PRES   REMARKS
WATSONVILLE    FOG       59  58  96 CALM      30.29S VSB 1/2
SALINAS        CLOUDY    61  57  87 SW3       30.28S
MONTEREY       CLOUDY    60  57  89 CALM      30.29S
SAN LUIS OBISP PTCLDY    60  54  80 SW6       30.21F
SANTA MARIA    CLEAR     59  52  77 N9        30.20F
$$
CAZ015-016-220800-
NORTHERN SACRAMENTO VALLEY

CITY           SKY/WX    TMP DP  RH WIND       PRES   REMARKS
REDDING        CLOUDY    55  54  96 N5        30.29R FOG
RED BLUFF      CLOUDY    56  55  97 CALM      30.30S FOG
OROVILLE       MOCLDY    54  52  93 CALM      30.29S FOG
$$
CAZ016>018-220800-
SOUTHERN SACRAMENTO VALLEY

CITY           SKY/WX    TMP DP  RH WIND       PRES   REMARKS
AUBURN         CLEAR     52  52 100 CALM      30.28F
BEALE AFB      FOG       53  53 100 NW6       30.27S VSB 1/2
LINCOLN        CLOUDY    46  45  93 CALM      30.27S VSB 1/4
MARYSVILLE     PTCLDY    55  54  96 N5        30.28S FOG
SAC INTL ARPT  CLEAR     56  55  97 NW7       30.27F FOG
MATHER AIRPORT CLEAR     52  52 100 CALM      30.27
DOWNTOWN SAC   N/A       55  MM  MM MISG
SAC EXEC ARPT  PTCLDY    57  55  93 NW3       30.27S
VACAVILLE      PTCLDY    56  54  93 N6        30.29S
$$
CAZ019>021-220800-
SAN JOAQUIN VALLEY

CITY           SKY/WX    TMP DP  RH WIND       PRES   REMARKS
STOCKTON       CLEAR     57  55  93 NW7       30.26R
MODESTO        CLEAR     57  54  89 NW7       30.25S
MERCED         CLEAR     57  54  89 NW10      30.24S
LEMOORE        CLOUDY    57  55  93 SE8       30.26F
FRESNO         CLOUDY    55  53  93 SE6       30.27S FOG
HANFORD        CLOUDY    55  54  96 S5        30.27S FOG
PORTERVILLE    CLOUDY    55  52  88 S5        30.27F
BAKERSFIELD    CLOUDY    56  52  86 S5        30.27F
$$
CAZ011-012-071-220800-
NORTHERN MOUNTAINS

CITY           SKY/WX    TMP DP  RH WIND       PRES   REMARKS
YREKA          CLEAR     49  44  83 SE6       30.27S
MOUNT SHASTA   FOG       45  44  97 CALM      30.27S VSB 1/2
ALTURAS        CLOUDY    48  42  80 S12       30.26R
$$
CAZ011-012-071-220800-
SIERRA NEVADA MTNS

CITY           SKY/WX    TMP DP  RH WIND       PRES   REMARKS
BLUE CANYON    CLEAR     45  40  82 N3        30.34S
TRUCKEE        MOCLDY    32  32 100 CALM      30.36S
TAHOE VLY ARPT CLEAR     32  28  85 CALM      30.37R
MAMMOTH LAKES  FAIR      37  21  52 CALM      30.37R
$$




USA.gov is the U.S. government's official web portal to all federal, state and local government web resources and services.